Weather History for Anchorage Merrill, AK

Change the Weather History Date:

Saturday, November 9, 2013

  Actual Average Record
Temperature  
Mean Temperature 26 °F -  
Max Temperature 30 °F 29 °F 45 °F (1997)
Min Temperature 21 °F 19 °F -2 °F (2006)
Degree Days  
Heating Degree Days 40    
Moisture  
Dew Point 20 °F    
Average Humidity 77    
Maximum Humidity 86    
Minimum Humidity 61    
Precipitation  
Precipitation 0.02 in - - ()
Sea Level Pressure  
Sea Level Pressure 30.14 in    
Wind  
Wind Speed 3 mph (NNE)    
Max Wind Speed 6 mph    
Max Gust Speed -    
Visibility 8 miles    
Events Rain , Snow    
Averages and records for this station are not official NWS values.
T = Trace of Precipitation, MM = Missing Value Source: NWS Daily Summary

Daily Weather History Graph

Daily Weather History Graph

Search for Another Location

Airport:

Trip Planner

Search our weather history database for the weather conditions in past years. The results will help you decide how hot, cold, wet, or windy it might be!

Date:

Astronomy

Nov. 09, 2013 Rise Set
Actual Time 8:50 AM AKST 4:35 PM AKST
Civil Twilight 8:00 AM AKST 5:25 PM AKST
Nautical Twilight 7:07 AM AKST 6:17 PM AKST
Astronomical Twilight 6:17 AM AKST 7:08 PM AKST
Moon 2:11 PM AKST (11/9) 11:46 PM AKST (11/9)
Length of Visible Light 9h 24m
Length of Day
7h 44m
Waxing Crescent, 46% of the Moon is Illuminated
Nov 9
Waxing Crescent
Nov 9
First Quarter
Nov 17
Full
Nov 25
Last Quarter
Dec 2
New

Hourly Weather History & Observations

Time (AKST) Temp. Windchill Dew Point Humidity Pressure Visibility Wind Dir Wind Speed Gust Speed Precip Events Conditions
12:53 AM 21.0 °F 14.6 °F 12.0 °F 68% 30.23 in 10.0 mi NNE 4.6 mph - N/A   Clear
1:53 AM 23.0 °F - 12.0 °F 63% 30.22 in 10.0 mi Calm Calm - N/A   Partly Cloudy
3:53 AM 21.9 °F - 12.0 °F 66% 30.22 in 10.0 mi Calm Calm - N/A   Partly Cloudy
4:53 AM 23.0 °F 17.0 °F 15.1 °F 72% 30.23 in 10.0 mi North 4.6 mph - N/A   Scattered Clouds
5:53 AM 24.1 °F 19.7 °F 15.1 °F 69% 30.22 in 10.0 mi North 3.5 mph - N/A   Scattered Clouds
6:53 AM 24.1 °F 19.7 °F 15.1 °F 69% 30.22 in 10.0 mi NNE 3.5 mph - N/A   Overcast
7:53 AM 25.0 °F 19.3 °F 15.1 °F 66% 30.21 in 10.0 mi NNE 4.6 mph - N/A   Overcast
8:53 AM 26.1 °F 19.4 °F 15.1 °F 63% 30.20 in 10.0 mi NNE 5.8 mph - N/A   Overcast
9:53 AM 27.0 °F - 15.1 °F 61% 30.21 in 10.0 mi Calm Calm - N/A   Overcast
10:53 AM 27.0 °F 23.0 °F 16.0 °F 63% 30.21 in 5.0 mi NNE 3.5 mph - 0.00 in Snow Light Snow
11:14 AM 26.6 °F 21.2 °F 19.4 °F 74% 30.19 in 2.0 mi NNE 4.6 mph - 0.00 in Snow Light Snow
11:53 AM 26.1 °F 19.4 °F 19.0 °F 75% 30.20 in 6.0 mi North 5.8 mph - 0.00 in Snow Light Snow
12:27 PM 26.6 °F 21.2 °F 19.4 °F 74% 30.20 in 2.5 mi North 4.6 mph - 0.00 in   Overcast
12:53 PM 26.1 °F 21.9 °F 21.0 °F 81% 30.21 in 2.0 mi North 3.5 mph - 0.00 in Snow Light Snow
1:53 PM 26.1 °F 19.4 °F 21.0 °F 81% 30.18 in 3.0 mi NE 5.8 mph - 0.00 in   Haze
2:53 PM 27.0 °F 23.0 °F 21.9 °F 81% 30.17 in 3.0 mi North 3.5 mph - N/A   Haze
3:53 PM 27.0 °F 23.0 °F 21.9 °F 81% 30.16 in 5.0 mi NE 3.5 mph - N/A   Overcast
4:23 PM 26.6 °F 21.2 °F 21.2 °F 80% 30.12 in 9.0 mi NNE 4.6 mph - N/A   Overcast
4:53 PM 27.0 °F - 21.9 °F 81% 30.16 in 9.0 mi Calm Calm - N/A   Overcast
5:16 PM 26.6 °F 20.0 °F 23.0 °F 86% 30.14 in 9.0 mi East 5.8 mph - 0.01 in Rain Light Freezing Rain
5:53 PM 28.0 °F - 23.0 °F 81% 30.12 in 9.0 mi Calm Calm - 0.01 in   Overcast
6:33 PM 28.4 °F - 24.8 °F 86% 30.10 in 10.0 mi Calm Calm - N/A   Overcast
6:40 PM 28.4 °F 24.6 °F 24.8 °F 86% 30.11 in 9.0 mi NNW 3.5 mph - N/A   Overcast
6:53 PM 28.9 °F - 25.0 °F 85% 30.11 in 9.0 mi Calm Calm - N/A   Overcast
7:53 PM 28.9 °F 25.2 °F 25.0 °F 85% 30.09 in 9.0 mi NNE 3.5 mph - 0.00 in Rain Light Freezing Rain
8:36 PM 30.2 °F 26.7 °F 24.8 °F 80% 30.07 in 9.0 mi North 3.5 mph - 0.00 in   Overcast
8:53 PM 30.0 °F 26.5 °F 25.0 °F 82% 30.07 in 9.0 mi NNE 3.5 mph - 0.00 in   Overcast
9:43 PM 30.2 °F - 24.8 °F 80% 30.05 in 9.0 mi Calm Calm - 0.01 in Rain Light Freezing Rain
9:53 PM 30.0 °F - 25.0 °F 82% 30.05 in 9.0 mi Calm Calm - 0.01 in Rain Light Freezing Rain
10:27 PM 30.2 °F - 24.8 °F 80% 30.01 in 10.0 mi Calm Calm - 0.00 in   Overcast
10:35 PM 30.2 °F - 24.8 °F 80% 30.00 in 10.0 mi Calm Calm - 0.00 in   Light Freezing Drizzle
10:53 PM 30.0 °F 25.2 °F 25.0 °F 82% 30.02 in 10.0 mi NW 4.6 mph - 0.00 in   Overcast
11:53 PM 30.0 °F 25.2 °F 26.1 °F 85% 30.00 in 10.0 mi NE 4.6 mph - 0.00 in   Light Freezing Rain